Location: Sullivan Central High School
(36.5298°N, 82.3860°W)
Time: 12:15:15
(UTC-04:00)

ISS - Visible Passes

Search period start: 28 September 2021 00:00
Search period end: 08 October 2021 00:00
Orbit: 417 x 422 km, 51.6° (Epoch: 28 September)

Date Brightness Start Highest point End Pass type
(mag) Time Alt. Az. Time Alt. Az. Time Alt. Az.
30 Sep -0.9 21:21:58 10° NNW 21:22:40 14° NNW 21:22:40 14° NNW visible
01 Oct -1.7 20:34:46 10° NNW 20:36:59 17° NNE 20:36:59 17° NNE visible
02 Oct -1.4 19:47:39 10° N 19:49:14 13° NNE 19:50:48 10° NE visible
02 Oct -1.2 21:23:10 10° NW 21:24:17 19° NW 21:24:17 19° NW visible
03 Oct -3.0 20:35:35 10° NW 20:38:37 39° NNE 20:38:37 39° NNE visible
04 Oct -2.4 19:48:03 10° NNW 19:50:53 25° NNE 19:53:01 14° E visible
04 Oct -1.0 21:24:38 10° WNW 21:25:58 20° W 21:25:58 20° W visible
05 Oct -3.5 20:36:35 10° NW 20:39:55 62° SW 20:40:25 53° S visible
06 Oct -3.8 19:48:39 10° NW 19:52:00 69° NE 19:54:58 13° ESE visible
07 Oct -1.2 20:38:07 10° W 20:40:31 18° SW 20:42:37 11° S visible
